Consulta los datos en tiempo real de la estación meteorológica de Montseny - St.Marçal
| Hora UTC | 07:30 |
|---|---|
| Temperatura | 26.6 ºC |
| Humedad | 23.9 % |
| Pluja | 0.0 mm |
| Velocidad viento | 0.0 km/h |
| Dirección viento | NNE |
| Radiación solar | 123.8 W/m² |
| Temperatura (ºC) | Humedad (%) | Velocidad viento (km/h) | Precipitación (mm) | Radiación solar (W/m²) | ||||||||||||
|---|---|---|---|---|---|---|---|---|---|---|---|---|---|---|---|---|
| Hora UTC | Aire | Humedad | Vel. | Dir. | Vel. Max | Dir. | Intent. máx 5 min. | Rad. Sol. | ||||||||
| 00:05 | 24.4 | 36.6 | 0.0 | NNE | 0.0 | SSW | 0.0 | 0.1 | ||||||||
| 00:10 | 24.5 | 36.2 | 0.0 | NNE | 0.0 | SSW | 0.0 | 0.1 | ||||||||
| 00:15 | 24.7 | 35.2 | 0.0 | NNE | 0.0 | SSW | 0.0 | 0.0 | ||||||||
| 00:20 | 25.2 | 32.9 | 0.0 | NNE | 0.0 | SW | 0.0 | 0.3 | ||||||||
| 00:25 | 25.3 | 33.4 | 0.0 | NNE | 0.0 | WSW | 0.0 | 0.0 | ||||||||
| 00:30 | 25.1 | 33.5 | 0.0 | NNE | 0.0 | SW | 0.0 | 0.0 | ||||||||
| 00:35 | 24.9 | 35.0 | 0.0 | NNE | 0.0 | SSW | 0.0 | 0.0 | ||||||||
| 00:40 | 24.3 | 38.1 | 0.0 | NNE | 0.0 | SSW | 0.0 | 0.0 | ||||||||
| 00:45 | 24.1 | 39.6 | 0.0 | NNE | 0.0 | S | 0.0 | 0.0 | ||||||||
| 00:50 | 24.0 | 40.2 | 0.0 | NNE | 0.0 | SSW | 0.0 | 0.0 | ||||||||
| 00:55 | 24.0 | 40.1 | 0.0 | NNE | 0.0 | SSW | 0.0 | 0.0 | ||||||||
| 01:00 | 24.2 | 39.5 | 0.0 | NNE | 0.0 | SW | 0.0 | 0.0 | ||||||||
| 01:05 | 24.1 | 40.0 | 0.0 | NNE | 0.0 | SW | 0.0 | 0.0 | ||||||||
| 01:10 | 24.2 | 39.8 | 0.0 | NNE | 0.0 | SW | 0.0 | 0.0 | ||||||||
| 01:15 | 24.4 | 39.3 | 0.0 | NNE | 0.0 | SSW | 0.0 | 0.0 | ||||||||
| 01:20 | 24.1 | 40.4 | 0.0 | NNE | 0.0 | SSW | 0.0 | 0.0 | ||||||||
| 01:25 | 23.9 | 41.2 | 0.0 | NNE | 0.0 | S | 0.0 | 0.0 | ||||||||
| 01:30 | 23.7 | 42.2 | 0.0 | NNE | 0.0 | SSW | 0.0 | 0.0 | ||||||||
| 01:35 | 23.6 | 42.3 | 0.0 | NNE | 0.0 | SW | 0.0 | 0.0 | ||||||||
| 01:40 | 24.4 | 39.4 | 0.0 | NNE | 0.0 | SW | 0.0 | 0.4 | ||||||||
| 01:45 | 24.5 | 39.9 | 0.0 | NNE | 0.0 | SSW | 0.0 | 0.0 | ||||||||
| 01:50 | 24.5 | 39.9 | 0.0 | NNE | 0.0 | S | 0.0 | 0.0 | ||||||||
| 01:55 | 24.6 | 39.4 | 0.0 | NNE | 0.0 | SW | 0.0 | 0.0 | ||||||||
| 02:00 | 24.2 | 41.3 | 0.0 | NNE | 0.0 | SW | 0.0 | 0.0 | ||||||||
| 02:05 | 24.2 | 40.4 | 0.0 | NNE | 0.0 | SW | 0.0 | 0.0 | ||||||||
| 02:10 | 24.4 | 40.2 | 0.0 | NNE | 0.0 | SW | 0.0 | 0.0 | ||||||||
| 02:15 | 24.2 | 40.6 | 0.0 | NNE | 0.0 | S | 0.0 | 0.0 | ||||||||
| 02:20 | 24.0 | 40.6 | 0.0 | NNE | 0.0 | SSW | 0.0 | 0.0 | ||||||||
| 02:25 | 23.9 | 40.9 | 0.0 | NNE | 0.0 | SSW | 0.0 | 0.0 | ||||||||
| 02:30 | 24.0 | 39.8 | 0.0 | NNE | 0.0 | SW | 0.0 | 0.0 | ||||||||
| 02:35 | 24.5 | 38.4 | 0.0 | NNE | 0.0 | WSW | 0.0 | 0.0 | ||||||||
| 02:40 | 24.7 | 37.4 | 0.0 | NNE | 0.0 | S | 0.0 | 0.0 | ||||||||
| 02:45 | 24.3 | 38.3 | 0.0 | NNE | 0.0 | SSW | 0.0 | 0.0 | ||||||||
| 02:50 | 24.5 | 36.6 | 0.0 | NNE | 0.0 | SW | 0.0 | 0.0 | ||||||||
| 02:55 | 24.6 | 36.1 | 0.0 | NNE | 0.0 | S | 0.0 | 0.0 | ||||||||
| 03:00 | 24.7 | 35.1 | 0.0 | NNE | 0.0 | SW | 0.0 | 0.0 | ||||||||
| 03:05 | 24.3 | 36.8 | 0.0 | NNE | 0.0 | SSW | 0.0 | 0.0 | ||||||||
| 03:10 | 24.0 | 36.6 | 0.0 | NNE | 0.0 | SSW | 0.0 | 0.0 | ||||||||
| 03:15 | 23.9 | 36.8 | 0.0 | NNE | 0.0 | SSW | 0.0 | 0.0 | ||||||||
| 03:20 | 24.3 | 35.4 | 0.0 | NNE | 0.0 | S | 0.0 | 0.0 | ||||||||
| 03:25 | 24.2 | 35.5 | 0.0 | NNE | 0.0 | SSW | 0.0 | 0.0 | ||||||||
| 03:30 | 24.6 | 33.7 | 0.0 | NNE | 0.0 | SSW | 0.0 | 0.0 | ||||||||
| 03:35 | 24.5 | 34.1 | 0.0 | NNE | 0.0 | SSW | 0.0 | 0.0 | ||||||||
| 03:40 | 24.1 | 35.0 | 0.0 | NNE | 0.0 | SW | 0.0 | 0.0 | ||||||||
| 03:45 | 24.3 | 33.9 | 0.0 | NNE | 0.0 | S | 0.0 | 0.0 | ||||||||
| 03:50 | 24.9 | 30.9 | 0.0 | NNE | 0.0 | SSW | 0.0 | 0.1 | ||||||||
| 03:55 | 24.7 | 32.8 | 0.0 | NNE | 0.0 | SW | 0.0 | 0.0 | ||||||||
| 04:00 | 24.4 | 32.5 | 0.0 | NNE | 0.0 | SW | 0.0 | 0.0 | ||||||||
| 04:05 | 24.5 | 31.5 | 0.0 | NNE | 0.0 | WSW | 0.0 | 0.0 | ||||||||
| 04:10 | 24.7 | 30.2 | 0.0 | NNE | 0.0 | S | 0.0 | 0.0 | ||||||||
| 04:15 | 25.0 | 30.3 | 0.0 | NNE | 0.0 | S | 0.0 | 0.0 | ||||||||
| 04:20 | 24.3 | 31.4 | 0.0 | NNE | 0.0 | SSW | 0.0 | 0.0 | ||||||||
| 04:25 | 24.3 | 30.5 | 0.0 | NNE | 0.0 | SSW | 0.0 | 0.0 | ||||||||
| 04:30 | 24.5 | 29.5 | 0.0 | NNE | 0.0 | WSW | 0.0 | 0.0 | ||||||||
| 04:35 | 24.6 | 29.2 | 0.0 | NNE | 0.0 | SSW | 0.0 | 0.0 | ||||||||
| 04:40 | 24.9 | 27.4 | 0.0 | NNE | 0.0 | SW | 0.0 | 0.0 | ||||||||
| 04:45 | 24.9 | 27.0 | 0.0 | NNE | 0.0 | SW | 0.0 | 0.0 | ||||||||
| 04:50 | 25.6 | 25.1 | 0.0 | NNE | 0.0 | SW | 0.0 | 0.1 | ||||||||
| 04:55 | 25.8 | 24.8 | 0.0 | NNE | 0.0 | S | 0.0 | 0.0 | ||||||||
| 05:00 | 25.4 | 25.1 | 0.0 | NNE | 0.0 | SW | 0.0 | 0.0 | ||||||||
| 05:05 | 24.8 | 26.9 | 0.0 | NNE | 0.0 | SW | 0.0 | 0.0 | ||||||||
| 05:10 | 24.7 | 26.7 | 0.0 | NNE | 0.0 | W | 0.0 | 0.0 | ||||||||
| 05:15 | 25.1 | 25.6 | 0.0 | NNE | 0.0 | WNW | 0.0 | 0.0 | ||||||||
| 05:20 | 24.9 | 26.1 | 0.0 | NNE | 0.0 | W | 0.0 | 0.6 | ||||||||
| 05:25 | 25.1 | 25.6 | 0.0 | NNE | 0.0 | WSW | 0.0 | 3.1 | ||||||||
| 05:30 | 25.4 | 25.1 | 0.0 | NNE | 0.0 | WSW | 0.0 | 6.3 | ||||||||
| 05:35 | 25.6 | 24.4 | 0.0 | NNE | 0.0 | S | 0.0 | 9.4 | ||||||||
| 05:40 | 25.4 | 25.3 | 0.0 | NNE | 0.0 | W | 0.0 | 12.2 | ||||||||
| 05:45 | 25.0 | 26.1 | 0.0 | NNE | 0.0 | SW | 0.0 | 16.3 | ||||||||
| 05:50 | 24.9 | 26.4 | 0.0 | NNE | 0.0 | SW | 0.0 | 21.3 | ||||||||
| 05:55 | 25.0 | 26.6 | 0.0 | NNE | 0.0 | WSW | 0.0 | 26.0 | ||||||||
| 06:00 | 25.0 | 27.2 | 0.0 | NNE | 0.0 | SSW | 0.0 | 30.5 | ||||||||
| 06:05 | 24.8 | 27.3 | 0.0 | NNE | 0.0 | WSW | 0.0 | 35.0 | ||||||||
| 06:10 | 25.2 | 26.9 | 0.0 | NNE | 0.0 | S | 0.0 | 39.3 | ||||||||
| 06:15 | 25.0 | 26.7 | 0.0 | NNE | 0.0 | SW | 0.0 | 44.0 | ||||||||
| 06:20 | 25.2 | 26.2 | 0.0 | NNE | 0.0 | SW | 0.0 | 48.5 | ||||||||
| 06:25 | 25.2 | 27.0 | 0.0 | NNE | 0.0 | WSW | 0.0 | 54.0 | ||||||||
| 06:30 | 25.2 | 26.1 | 0.0 | NNE | 0.0 | SSW | 0.0 | 59.9 | ||||||||
| 06:35 | 25.6 | 26.1 | 0.0 | NNE | 0.0 | WNW | 0.0 | 64.6 | ||||||||
| 06:40 | 25.1 | 27.9 | 0.0 | NNE | 0.0 | SW | 0.0 | 68.4 | ||||||||
| 06:45 | 24.9 | 28.8 | 0.0 | NNE | 0.0 | SW | 0.0 | 72.6 | ||||||||
| 06:50 | 24.8 | 28.6 | 0.0 | NNE | 0.0 | SW | 0.0 | 78.1 | ||||||||
| 06:55 | 25.4 | 27.4 | 0.0 | NNE | 0.0 | W | 0.0 | 83.1 | ||||||||
| 07:00 | 25.7 | 26.7 | 0.0 | NNE | 0.0 | ESE | 0.0 | 87.6 | ||||||||
| 07:05 | 25.9 | 26.1 | 0.0 | NNE | 0.0 | WNW | 0.0 | 92.1 | ||||||||
| 07:10 | 25.8 | 26.7 | 0.0 | NNE | 0.0 | SW | 0.0 | 96.4 | ||||||||
| 07:15 | 26.0 | 25.7 | 0.0 | NNE | 0.0 | SW | 0.0 | 101.1 | ||||||||
| 07:20 | 26.1 | 24.9 | 0.0 | NNE | 0.0 | W | 0.0 | 105.2 | ||||||||
| 07:25 | 26.6 | 25.3 | 0.0 | NNE | 0.0 | NW | 0.0 | 108.6 | ||||||||
| 07:30 | 26.6 | 23.9 | 0.0 | NNE | 0.0 | WSW | 0.0 | 123.8 | ||||||||
| Máxima | 26.6 | 42.3 | 0.0 | NNE | 0.0 | WSW | 0.0 | 123.8 | ||||||||
| Mínima | 20 | 23.9 | ||||||||||||||
| Total | 0.0 | |||||||||||||||